SCP
0 0 0 0 0 0 0 0 0 0 0 0 0 0 0 0 0 0 0 0 0 0 0 1 1 1 1 1 1 2 1 1 0 0 0 0 0 1 1 0 0 0 0
0 0 0 0 0 0 0 0 0 0 0 0 0 0 0 0 0 0 0 0 0 0 0 0 1 1 1 2 1 1 0 1 0 1 1 1 0 0 1 1 0 0 0
0 0 0 0 0 0 0 0 0 0 0 0 0 0 0 0 0 0 0 0 0 0 0 0 0 1 1 2 1 1 1 1 0 0 1 1 1 0 1 1 1 0 0
0 0 0 0 0 0 0 0 0 0 0 0 0 0 0 0 0 0 0 0 0 0 0 0 0 0 1 1 1 1 1 1 1 1 -0 0 0 0 0 1 1 1 0
0 0 0 0 0 0 0 0 0 0 0 0 0 0 0 0 0 0 0 0 0 0 0 0 0 0 1 0 1 1 1 1 1 0 1 1 0 0 0 1 1 1 1
0 0 0 0 0 0 0 0 0 0 0 0 0 0 0 0 0 0 0 0 0 0 0 0 0 0 0 0 0 1 1 1 1 0 1 -0 1 1 0 1 1 1 1
0 0 0 0 0 0 0 0 0 0 0 0 0 0 0 0 0 0 0 0 0 0 0 0 0 0 0 0 1 1 1 1 1 0 0 1 0 0 1 1 1 1 1
0 0 0 0 0 0 0 0 0 0 0 0 0 0 0 0 0 0 0 0 0 0 0 0 0 0 0 0 0 1 0 0 1 1 0 0 0 0 0 1 1 1 1
0 0 0 0 0 0 0 0 0 0 0 0 0 0 -0 0 0 0 0 0 0 0 0 0 0 0 0 0 0 0 1 1 1 1 0 0 0 0 0 1 0 0 1
0 0 0 0 0 0 0 0 0 0 0 0 0 0 0 0 0 0 0 0 0 0 0 0 0 0 0 0 0 0 0 0 0 0 1 0 0 0 0 0 0 0 1
0 0 0 0 0 0 0 0 0 0 0 0 0 0 0 0 0 0 0 0 0 0 0 0 0 0 0 0 0 0 1 0 0 0 0 0 0 0 0 -0 0 0 1
0 0 0 0 0 0 0 0 0 0 0 0 0 0 0 0 0 0 0 0 0 0 0 0 0 0 0 0 0 0 0 0 0 0 0 0 0 0 0 0 0 0 1
0 0 0 0 0 0 0 0 0 0 0 0 0 0 0 0 0 0 0 0 0 -0 0 0 0 0 0 0 0 0 0 0 0 0 0 0 0 0 0 0 0 0 0
0 0 0 0 0 0 0 0 0 0 0 0 0 0 0 0 0 0 0 0 0 0 0 0 0 0 0 0 0 0 0 0 0 0 0 0 0 0 0 0 0 0 0
0 0 0 0 0 0 0 0 0 0 0 0 0 0 0 0 0 0 0 0 0 0 0 0 0 0 0 0 0 0 0 0 0 0 0 0 0 0 0 0 0 0 0
0 0 0 0 0 0 0 0 0 0 0 0 0 0 0 0 0 0 0 0 0 0 0 -0 -0 0 0 0 0 0 0 0 0 0 0 0 0 0 0 0 0 0 0
0 0 0 0 0 0 0 0 0 0 0 0 0 0 0 0 0 0 0 0 0 0 0 0 0 0 0 0 0 0 0 0 0 0 0 0 0 0 0 0 0 0 0
0 0 0 0 0 0 0 0 0 0 0 0 0 0 0 0 0 0 0 0 -0 0 0 0 0 0 0 0 0 0 0 0 0 0 0 0 0 0 0 0 0 0 0
0 0 0 0 0 0 0 0 0 0 0 0 0 0 0 0 0 0 0 0 0 0 0 0 0 0 0 0 0 0 0 0 0 0 0 0 0 0 0 0 0 0 0
0 0 0 0 0 0 0 0 0 0 0 0 0 0 0 0 0 0 0 0 0 0 0 0 0 0 0 0 0 0 0 0 0 0 0 0 0 0 0 0 0 0 0
0 0 0 0 0 0 0 0 0 0 0 0 0 0 0 0 -0 -0 0 0 0 0 0 0 0 0 0 0 0 0 0 0 0 0 0 0 0 0 0 0 0 0 0
0 0 0 0 0 0 0 0 0 0 0 0 0 0 0 0 0 -0 -0 -0 0 0 0 0 0 0 0 0 0 0 0 0 0 0 0 0 0 0 0 0 0 0 0
0 0 0 0 0 0 0 0 0 0 0 0 0 0 0 0 0 0 -0 -0 -0 0 0 0 0 0 0 0 0 0 0 0 0 0 0 0 0 0 0 0 0 0 0
0 0 0 0 0 0 0 0 0 0 0 0 0 0 0 0 0 0 0 0 0 0 0 0 0 0 0 0 0 0 0 0 0 0 0 0 0 0 0 0 0 0 0
0 0 0 0 0 0 0 0 0 0 0 0 0 0 0 0 0 0 0 0 0 0 0 0 0 0 0 0 0 0 0 0 0 0 0 0 0 0 0 0 0 0 0
0 0 0 0 0 0 0 0 0 0 0 0 0 0 0 0 0 0 0 0 0 0 0 0 0 0 0 -0 0 0 0 0 0 0 0 0 0 0 0 0 0 0 0
Wind_Speed_500mb
42 32 25 24 27 30 31 31 32 35 39 44 45 48 48 52 62 71 76 72 67 59 54 57 63 62 68 69 74 83 86 79 73 68 66 65 65 59 56 54 52 50 48
36 28 24 22 23 24 25 27 30 32 31 35 36 37 38 39 41 45 56 69 76 75 68 59 63 62 68 73 82 85 88 70 66 75 77 74 74 70 64 60 57 55 51
26 22 21 21 22 25 26 26 27 27 31 31 31 32 37 39 41 43 42 46 58 68 74 72 60 60 57 72 79 87 99 94 83 92 83 86 81 80 75 69 63 60 56
19 21 23 25 25 27 29 29 31 32 36 40 41 39 43 40 38 39 36 33 36 46 57 70 72 68 52 57 70 89 88 105 82 97 98 93 92 86 80 74 70 66 62
25 26 27 28 29 29 31 31 30 35 40 41 44 46 44 34 20 21 16 17 18 32 45 57 66 66 65 59 61 67 87 82 94 106 99 99 101 92 81 77 73 71 67
25 26 26 28 32 32 33 33 30 30 39 45 46 46 30 22 12 20 17 20 24 26 31 41 55 63 59 63 68 66 69 74 81 85 106 75 92 83 80 79 75 72 70
22 24 28 29 31 32 38 39 35 32 38 48 54 53 29 11 34 10 22 24 23 20 18 23 33 51 59 50 53 60 63 62 70 77 89 109 75 91 78 79 77 76 73
19 23 26 29 29 30 33 36 36 39 39 42 46 40 35 29 47 7 37 33 26 25 17 14 14 28 45 59 52 49 51 60 60 66 66 83 81 105 99 79 79 78 75
19 24 26 26 30 32 36 36 33 35 39 36 37 32 19 20 54 38 35 42 30 25 21 11 15 20 32 46 46 50 51 56 64 69 66 64 56 112 110 81 81 83 81
17 25 26 27 28 32 35 36 30 30 33 32 37 32 29 27 22 34 57 45 30 24 22 19 13 19 18 26 39 50 52 49 56 70 69 63 71 72 103 99 91 92 81
19 23 26 27 29 34 34 33 29 25 29 25 27 32 30 31 31 34 44 59 38 28 22 22 7 9 15 19 19 23 39 49 50 60 68 70 63 86 84 107 103 93 94
19 21 26 30 33 40 32 30 29 24 26 26 24 23 26 33 34 35 39 47 48 28 19 23 25 8 12 15 18 20 25 31 35 41 51 66 78 96 90 99 98 99 97
18 20 22 27 32 41 37 30 30 26 26 27 29 21 21 29 32 32 36 40 40 40 30 22 24 23 17 12 11 11 12 22 34 46 50 54 55 69 78 86 97 101 98
17 20 24 29 32 38 42 27 24 24 25 24 24 21 21 25 31 27 30 34 41 36 34 29 22 21 22 28 17 6 5 9 13 23 36 39 47 57 66 75 83 91 104
16 19 23 26 32 44 38 23 27 26 22 22 25 21 22 25 31 28 27 26 22 19 24 18 26 22 26 25 25 17 11 1 5 6 14 23 32 41 55 70 83 58 126
16 21 24 27 35 39 34 26 23 23 26 26 26 22 23 27 31 30 28 22 17 22 16 18 18 18 18 19 21 21 19 11 8 1 7 8 11 17 32 43 65 45 33
19 23 25 27 35 37 33 28 24 24 27 28 27 24 23 28 30 30 29 25 18 14 21 15 11 10 12 17 22 13 19 18 14 9 4 3 3 13 10 29 45 40 28
20 25 24 24 29 37 39 30 26 26 31 33 33 24 21 27 26 32 34 26 18 14 17 12 8 4 8 16 20 17 19 21 20 18 10 7 2 4 4 10 33 38 38
22 24 24 23 22 31 38 35 26 26 29 32 33 29 25 27 25 30 35 31 18 13 10 11 7 3 8 14 14 14 17 21 20 22 19 17 11 8 9 5 14 17 26
24 24 23 21 22 33 34 38 31 25 30 30 33 28 24 25 26 28 33 33 26 7 2 6 5 4 5 9 11 13 17 21 22 20 16 17 17 15 11 14 17 19 27
23 25 25 22 24 34 35 42 32 25 24 30 31 30 20 19 22 23 28 32 28 22 11 6 5 1 2 2 3 3 9 16 22 22 19 12 12 14 13 17 16 13 21
22 25 24 23 22 28 36 39 31 30 22 26 29 29 21 17 18 20 22 25 25 18 15 14 10 7 6 3 4 3 4 8 6 18 19 17 18 12 8 8 8 10 6
24 25 24 17 17 24 30 37 32 27 26 18 24 29 23 18 18 16 20 21 23 21 12 10 7 7 5 1 7 5 5 8 10 15 14 16 15 15 15 14 9 5 3
21 21 17 17 20 25 32 35 31 27 21 19 23 28 30 22 20 17 15 16 17 21 15 12 11 8 6 3 7 5 1 4 4 10 13 16 17 15 14 14 13 10 5
17 18 17 16 19 20 23 28 35 28 23 23 20 24 29 27 25 19 18 17 13 11 13 16 13 10 7 5 6 5 3 3 1 6 9 9 12 16 14 12 10 10 9
17 20 20 18 20 23 25 31 37 31 25 21 22 20 20 25 30 29 18 18 13 12 7 12 12 14 9 7 7 6 6 4 12 14 6 5 5 8 8 15 9 5 4
Wind_Direction_500mb
336 334 325 314 308 308 308 305 300 296 294 295 296 296 291 281 273 269 264 260 258 257 254 249 245 238 234 233 228 224 231 232 227 232 222 220 221 216 212 209 208 207 204
340 344 341 335 332 331 329 327 325 321 317 312 307 307 305 300 292 279 268 260 256 255 252 251 249 244 238 229 230 230 229 212 223 237 236 227 224 221 217 214 211 210 208
349 356 359 356 353 351 348 344 338 338 336 335 327 319 312 304 298 293 282 273 262 256 248 248 246 244 239 234 231 232 227 225 234 235 234 231 228 227 221 218 216 215 213
15 25 22 19 16 9 2 356 348 349 345 343 340 334 326 312 306 300 297 285 273 266 251 241 241 244 243 238 235 236 231 236 237 225 239 238 231 229 228 221 220 220 219
40 40 35 28 17 8 2 1 2 353 347 346 344 344 340 322 322 331 335 318 288 272 265 249 235 237 241 245 242 236 237 244 231 239 242 241 231 230 229 226 222 223 224
35 29 26 20 13 7 3 2 360 358 352 345 345 348 355 356 35 14 3 345 320 310 295 277 251 233 236 242 247 242 240 240 242 241 246 255 210 227 233 230 225 223 224
27 27 22 9 6 4 5 359 357 351 354 351 351 353 23 343 357 1 358 343 337 331 281 271 254 237 233 233 238 239 243 242 243 245 241 241 227 236 233 232 228 226 226
23 15 7 4 3 1 360 359 356 355 358 359 358 356 357 5 350 296 9 4 2 346 310 278 241 232 232 229 233 234 237 236 233 239 244 243 244 237 226 226 231 229 230
14 6 1 4 3 0 1 357 354 351 351 5 8 7 347 338 339 329 348 4 358 348 359 296 266 247 229 225 228 229 228 233 231 229 236 237 250 226 230 226 235 233 231
7 9 7 358 355 356 357 358 354 350 351 0 356 359 348 347 325 324 332 353 357 348 2 1 281 256 244 236 235 234 232 235 236 227 225 223 225 235 234 238 240 236 237
6 2 6 2 359 354 351 352 352 351 351 350 347 341 344 350 347 334 322 334 348 345 347 22 341 221 256 241 239 239 230 228 236 235 234 237 227 230 222 245 243 240 234
7 10 11 10 8 2 356 357 352 344 346 349 342 341 347 345 337 337 329 329 334 340 354 14 19 80 156 202 228 229 227 227 233 233 231 232 234 240 239 243 247 241 236
14 8 2 3 3 7 0 353 356 350 344 342 342 337 342 344 334 328 333 329 329 338 348 3 19 8 62 115 173 221 237 246 232 230 235 238 236 232 235 239 242 243 238
352 351 353 352 348 349 349 346 347 351 351 343 343 337 342 341 338 332 326 327 328 336 347 0 0 11 46 59 83 111 204 229 241 240 241 240 244 239 239 243 241 244 233
344 348 352 354 352 345 349 356 354 351 347 344 346 342 341 344 340 343 334 322 318 321 332 356 353 343 2 24 36 60 64 9 239 239 253 252 245 242 240 241 232 277 219
343 347 350 357 357 2 8 357 354 1 2 352 351 348 346 343 344 349 343 327 309 290 300 302 316 333 12 24 36 26 46 33 38 237 244 218 220 234 247 249 240 258 203
334 337 344 352 1 6 6 6 1 353 354 353 352 347 354 346 348 352 351 336 317 290 277 284 300 345 3 35 48 44 39 39 58 37 1 227 212 213 239 237 241 242 252
338 338 338 341 358 9 5 359 3 360 354 349 351 350 347 338 352 358 360 352 327 294 255 283 280 331 17 34 30 25 52 49 50 46 44 63 1 293 277 204 222 233 245
334 338 337 338 347 2 8 2 351 359 357 340 347 345 346 345 352 3 358 1 346 308 211 248 285 327 48 47 43 50 61 64 57 58 59 63 70 66 34 281 202 194 215
331 331 334 337 348 354 356 358 353 350 354 347 352 347 347 352 1 5 4 11 23 60 147 248 140 154 85 74 70 67 69 67 61 52 47 62 68 68 85 94 121 178 206
322 321 328 330 343 348 352 348 346 349 351 345 355 356 348 357 0 8 7 16 28 46 63 87 88 123 135 37 53 59 69 60 62 57 43 49 56 71 81 77 84 101 125
326 316 324 333 332 344 357 1 354 350 347 347 358 11 9 1 7 7 8 16 23 30 53 66 57 25 8 339 197 204 355 17 53 60 44 46 45 45 61 30 29 50 74
327 325 329 327 331 356 359 1 359 348 353 348 360 5 3 357 4 10 9 6 20 25 32 12 7 350 342 340 143 123 48 70 83 66 53 51 48 41 39 25 40 57 27
327 334 343 348 353 358 358 356 352 352 347 351 356 1 6 359 354 3 26 353 5 11 7 15 28 9 320 182 139 68 26 96 100 68 62 55 55 48 40 28 11 16 25
321 347 350 356 354 344 332 349 351 346 347 348 352 356 4 8 1 346 337 336 342 11 358 357 2 8 16 19 143 47 332 249 216 14 355 34 40 40 48 42 32 15 1
318 333 338 343 324 324 321 341 341 341 339 338 346 345 350 358 6 358 345 345 333 335 351 323 341 352 323 319 318 342 28 244 285 303 243 288 336 15 16 17 12 20 17
Wind_Speed_850mb
42 32 25 24 27 30 31 31 32 35 39 44 45 48 48 52 62 71 76 72 67 59 54 57 63 62 68 69 74 83 86 79 73 68 66 65 65 59 56 54 52 50 48
36 28 24 22 23 24 25 27 30 32 31 35 36 37 38 39 41 45 56 69 76 75 68 59 63 62 68 73 82 85 88 70 66 75 77 74 74 70 64 60 57 55 51
26 22 21 21 22 25 26 26 27 27 31 31 31 32 37 39 41 43 42 46 58 68 74 72 60 60 57 72 79 87 99 94 83 92 83 86 81 80 75 69 63 60 56
19 21 23 25 25 27 29 29 31 32 36 40 41 39 43 40 38 39 36 33 36 46 57 70 72 68 52 57 70 89 88 105 82 97 98 93 92 86 80 74 70 66 62
25 26 27 28 29 29 31 31 30 35 40 41 44 46 44 34 20 21 16 17 18 32 45 57 66 66 65 59 61 67 87 82 94 106 99 99 101 92 81 77 73 71 67
25 26 26 28 32 32 33 33 30 30 39 45 46 46 30 22 12 20 17 20 24 26 31 41 55 63 59 63 68 66 69 74 81 85 106 75 92 83 80 79 75 72 70
22 24 28 29 31 32 38 39 35 32 38 48 54 53 29 11 34 10 22 24 23 20 18 23 33 51 59 50 53 60 63 62 70 77 89 109 75 91 78 79 77 76 73
19 23 26 29 29 30 33 36 36 39 39 42 46 40 35 29 47 7 37 33 26 25 17 14 14 28 45 59 52 49 51 60 60 66 66 83 81 105 99 79 79 78 75
19 24 26 26 30 32 36 36 33 35 39 36 37 32 19 20 54 38 35 42 30 25 21 11 15 20 32 46 46 50 51 56 64 69 66 64 56 112 110 81 81 83 81
17 25 26 27 28 32 35 36 30 30 33 32 37 32 29 27 22 34 57 45 30 24 22 19 13 19 18 26 39 50 52 49 56 70 69 63 71 72 103 99 91 92 81
19 23 26 27 29 34 34 33 29 25 29 25 27 32 30 31 31 34 44 59 38 28 22 22 7 9 15 19 19 23 39 49 50 60 68 70 63 86 84 107 103 93 94
19 21 26 30 33 40 32 30 29 24 26 26 24 23 26 33 34 35 39 47 48 28 19 23 25 8 12 15 18 20 25 31 35 41 51 66 78 96 90 99 98 99 97
18 20 22 27 32 41 37 30 30 26 26 27 29 21 21 29 32 32 36 40 40 40 30 22 24 23 17 12 11 11 12 22 34 46 50 54 55 69 78 86 97 101 98
17 20 24 29 32 38 42 27 24 24 25 24 24 21 21 25 31 27 30 34 41 36 34 29 22 21 22 28 17 6 5 9 13 23 36 39 47 57 66 75 83 91 104
16 19 23 26 32 44 38 23 27 26 22 22 25 21 22 25 31 28 27 26 22 19 24 18 26 22 26 25 25 17 11 1 5 6 14 23 32 41 55 70 83 58 126
16 21 24 27 35 39 34 26 23 23 26 26 26 22 23 27 31 30 28 22 17 22 16 18 18 18 18 19 21 21 19 11 8 1 7 8 11 17 32 43 65 45 33
19 23 25 27 35 37 33 28 24 24 27 28 27 24 23 28 30 30 29 25 18 14 21 15 11 10 12 17 22 13 19 18 14 9 4 3 3 13 10 29 45 40 28
20 25 24 24 29 37 39 30 26 26 31 33 33 24 21 27 26 32 34 26 18 14 17 12 8 4 8 16 20 17 19 21 20 18 10 7 2 4 4 10 33 38 38
22 24 24 23 22 31 38 35 26 26 29 32 33 29 25 27 25 30 35 31 18 13 10 11 7 3 8 14 14 14 17 21 20 22 19 17 11 8 9 5 14 17 26
24 24 23 21 22 33 34 38 31 25 30 30 33 28 24 25 26 28 33 33 26 7 2 6 5 4 5 9 11 13 17 21 22 20 16 17 17 15 11 14 17 19 27
23 25 25 22 24 34 35 42 32 25 24 30 31 30 20 19 22 23 28 32 28 22 11 6 5 1 2 2 3 3 9 16 22 22 19 12 12 14 13 17 16 13 21
22 25 24 23 22 28 36 39 31 30 22 26 29 29 21 17 18 20 22 25 25 18 15 14 10 7 6 3 4 3 4 8 6 18 19 17 18 12 8 8 8 10 6
24 25 24 17 17 24 30 37 32 27 26 18 24 29 23 18 18 16 20 21 23 21 12 10 7 7 5 1 7 5 5 8 10 15 14 16 15 15 15 14 9 5 3
21 21 17 17 20 25 32 35 31 27 21 19 23 28 30 22 20 17 15 16 17 21 15 12 11 8 6 3 7 5 1 4 4 10 13 16 17 15 14 14 13 10 5
17 18 17 16 19 20 23 28 35 28 23 23 20 24 29 27 25 19 18 17 13 11 13 16 13 10 7 5 6 5 3 3 1 6 9 9 12 16 14 12 10 10 9
17 20 20 18 20 23 25 31 37 31 25 21 22 20 20 25 30 29 18 18 13 12 7 12 12 14 9 7 7 6 6 4 12 14 6 5 5 8 8 15 9 5 4
Wind_Direction_850mb
336 334 325 314 308 308 308 305 300 296 294 295 296 296 291 281 273 269 264 260 258 257 254 249 245 238 234 233 228 224 231 232 227 232 222 220 221 216 212 209 208 207 204
340 344 341 335 332 331 329 327 325 321 317 312 307 307 305 300 292 279 268 260 256 255 252 251 249 244 238 229 230 230 229 212 223 237 236 227 224 221 217 214 211 210 208
349 356 359 356 353 351 348 344 338 338 336 335 327 319 312 304 298 293 282 273 262 256 248 248 246 244 239 234 231 232 227 225 234 235 234 231 228 227 221 218 216 215 213
15 25 22 19 16 9 2 356 348 349 345 343 340 334 326 312 306 300 297 285 273 266 251 241 241 244 243 238 235 236 231 236 237 225 239 238 231 229 228 221 220 220 219
40 40 35 28 17 8 2 1 2 353 347 346 344 344 340 322 322 331 335 318 288 272 265 249 235 237 241 245 242 236 237 244 231 239 242 241 231 230 229 226 222 223 224
35 29 26 20 13 7 3 2 360 358 352 345 345 348 355 356 35 14 3 345 320 310 295 277 251 233 236 242 247 242 240 240 242 241 246 255 210 227 233 230 225 223 224
27 27 22 9 6 4 5 359 357 351 354 351 351 353 23 343 357 1 358 343 337 331 281 271 254 237 233 233 238 239 243 242 243 245 241 241 227 236 233 232 228 226 226
23 15 7 4 3 1 360 359 356 355 358 359 358 356 357 5 350 296 9 4 2 346 310 278 241 232 232 229 233 234 237 236 233 239 244 243 244 237 226 226 231 229 230
14 6 1 4 3 0 1 357 354 351 351 5 8 7 347 338 339 329 348 4 358 348 359 296 266 247 229 225 228 229 228 233 231 229 236 237 250 226 230 226 235 233 231
7 9 7 358 355 356 357 358 354 350 351 0 356 359 348 347 325 324 332 353 357 348 2 1 281 256 244 236 235 234 232 235 236 227 225 223 225 235 234 238 240 236 237
6 2 6 2 359 354 351 352 352 351 351 350 347 341 344 350 347 334 322 334 348 345 347 22 341 221 256 241 239 239 230 228 236 235 234 237 227 230 222 245 243 240 234
7 10 11 10 8 2 356 357 352 344 346 349 342 341 347 345 337 337 329 329 334 340 354 14 19 80 156 202 228 229 227 227 233 233 231 232 234 240 239 243 247 241 236
14 8 2 3 3 7 0 353 356 350 344 342 342 337 342 344 334 328 333 329 329 338 348 3 19 8 62 115 173 221 237 246 232 230 235 238 236 232 235 239 242 243 238
352 351 353 352 348 349 349 346 347 351 351 343 343 337 342 341 338 332 326 327 328 336 347 0 0 11 46 59 83 111 204 229 241 240 241 240 244 239 239 243 241 244 233
344 348 352 354 352 345 349 356 354 351 347 344 346 342 341 344 340 343 334 322 318 321 332 356 353 343 2 24 36 60 64 9 239 239 253 252 245 242 240 241 232 277 219
343 347 350 357 357 2 8 357 354 1 2 352 351 348 346 343 344 349 343 327 309 290 300 302 316 333 12 24 36 26 46 33 38 237 244 218 220 234 247 249 240 258 203
334 337 344 352 1 6 6 6 1 353 354 353 352 347 354 346 348 352 351 336 317 290 277 284 300 345 3 35 48 44 39 39 58 37 1 227 212 213 239 237 241 242 252
338 338 338 341 358 9 5 359 3 360 354 349 351 350 347 338 352 358 360 352 327 294 255 283 280 331 17 34 30 25 52 49 50 46 44 63 1 293 277 204 222 233 245
334 338 337 338 347 2 8 2 351 359 357 340 347 345 346 345 352 3 358 1 346 308 211 248 285 327 48 47 43 50 61 64 57 58 59 63 70 66 34 281 202 194 215
331 331 334 337 348 354 356 358 353 350 354 347 352 347 347 352 1 5 4 11 23 60 147 248 140 154 85 74 70 67 69 67 61 52 47 62 68 68 85 94 121 178 206
322 321 328 330 343 348 352 348 346 349 351 345 355 356 348 357 0 8 7 16 28 46 63 87 88 123 135 37 53 59 69 60 62 57 43 49 56 71 81 77 84 101 125
326 316 324 333 332 344 357 1 354 350 347 347 358 11 9 1 7 7 8 16 23 30 53 66 57 25 8 339 197 204 355 17 53 60 44 46 45 45 61 30 29 50 74
327 325 329 327 331 356 359 1 359 348 353 348 360 5 3 357 4 10 9 6 20 25 32 12 7 350 342 340 143 123 48 70 83 66 53 51 48 41 39 25 40 57 27
327 334 343 348 353 358 358 356 352 352 347 351 356 1 6 359 354 3 26 353 5 11 7 15 28 9 320 182 139 68 26 96 100 68 62 55 55 48 40 28 11 16 25
321 347 350 356 354 344 332 349 351 346 347 348 352 356 4 8 1 346 337 336 342 11 358 357 2 8 16 19 143 47 332 249 216 14 355 34 40 40 48 42 32 15 1
318 333 338 343 324 324 321 341 341 341 339 338 346 345 350 358 6 358 345 345 333 335 351 323 341 352 323 319 318 342 28 244 285 303 243 288 336 15 16 17 12 20 17